Hill City, KS

10:40 PM CST on February 12, 2016 (GMT -0600)
Hill City Municipal

Weather History for KHLC - August, 2014

Change the Weather History Date:

Friday, August 8, 2014

  Actual Average Record
Temperature  
Mean Temperature 77 °F 78 °F  
Max Temperature 89 °F 91 °F 112 °F (1934)
Min Temperature 65 °F 65 °F 46 °F (1989)
Cooling Degree Days 11    
Growing Degree Days 26 (Base 50)    
Moisture  
Dew Point 64 °F    
Average Humidity 70    
Maximum Humidity 97    
Minimum Humidity 43    
Precipitation  
Precipitation 0.03 in 0.09 in 0.48 in (2011)
Month to date precipitation 0.78 0.76  
Year to date precipitation 14.45 15.73  
Sea Level Pressure  
Sea Level Pressure 29.93 in    
Wind  
Wind Speed 10 mph (South)    
Max Wind Speed 22 mph    
Max Gust Speed 29 mph    
Visibility 10 miles    
Events Rain , Thunderstorm    
T = Trace of Precipitation, MM = Missing Value Source: NWS Daily Summary

Daily Weather History Graph

Daily Weather History Graph

Search for Another Location

Airport or City:

Trip Planner

Search our weather history database for the weather conditions in past years. The results will help you decide how hot, cold, wet, or windy it might be!

Date:

Astronomy

Aug. 08, 2014 Rise Set
Actual Time 6:45 AM CDT 8:43 PM CDT
Civil Twilight 6:16 AM CDT 9:12 PM CDT
Nautical Twilight 5:40 AM CDT 9:48 PM CDT
Astronomical Twilight 5:01 AM CDT 10:26 PM CDT
Moon 6:56 PM CDT (8/8) 4:20 AM CDT (8/8)
Length of Visible Light 14h 56m
Length of Day
13h 58m
Waxing Gibbous, 94% of the Moon is Illuminated
Aug 8
Waxing Gibbous
Aug 10
Full
Aug 17
Last Quarter
Aug 25
New
Sep 2
First Quarter

Hourly Weather History & Observations

Time (CDT) Temp. Heat Index Dew Point Humidity Pressure Visibility Wind Dir Wind Speed Gust Speed Precip Events Conditions
12:12 AM 68.0 °F - 64.0 °F 87% 29.98 in 6.0 mi ESE 19.6 mph 25.3 mph 0.07 in Rain Rain
12:53 AM 69.1 °F - 61.0 °F 75% 29.93 in 10.0 mi South 12.7 mph - 0.10 in Rain Light Rain
12:58 AM 69.1 °F - 61.0 °F 75% 29.99 in 10.0 mi South 15.0 mph - 0.00 in Rain , Thunderstorm Light Rain
1:13 AM 68.0 °F - 62.1 °F 81% 29.99 in 10.0 mi SSW 21.9 mph 28.8 mph 0.00 in Rain Light Rain
1:53 AM 66.9 °F - 64.0 °F 90% 29.93 in 10.0 mi South 11.5 mph - 0.03 in Rain Light Rain
2:53 AM 69.1 °F - 64.0 °F 84% 29.93 in 10.0 mi SW 8.1 mph 26.5 mph 0.00 in Rain Light Rain
3:53 AM 68.0 °F - 64.9 °F 90% 29.92 in 10.0 mi SSE 3.5 mph - 0.00 in   Mostly Cloudy
4:53 AM 66.0 °F - 64.0 °F 93% 29.91 in 10.0 mi Calm Calm - N/A   Clear
5:53 AM 66.0 °F - 64.0 °F 93% 29.93 in 10.0 mi Calm Calm - N/A   Clear
6:53 AM 64.9 °F - 64.0 °F 97% 29.96 in 10.0 mi SSW 4.6 mph - N/A   Mostly Cloudy
7:53 AM 66.0 °F - 64.0 °F 93% 29.96 in 10.0 mi Calm Calm - N/A   Clear
8:53 AM 71.1 °F - 66.0 °F 84% 29.96 in 10.0 mi Calm Calm - N/A   Clear
9:53 AM 73.9 °F - 63.0 °F 68% 29.97 in 10.0 mi SSE 3.5 mph - N/A   Clear
10:53 AM 77.0 °F - 62.1 °F 60% 29.98 in 10.0 mi ESE 5.8 mph - N/A   Clear
11:53 AM 80.1 °F 81.2 °F 62.1 °F 54% 29.96 in 10.0 mi SSE 6.9 mph - N/A   Clear
12:53 PM 82.9 °F 83.7 °F 62.1 °F 49% 29.94 in 10.0 mi SSW 6.9 mph - N/A   Clear
1:53 PM 84.9 °F 85.9 °F 63.0 °F 48% 29.93 in 10.0 mi Variable 6.9 mph - N/A   Clear
2:53 PM 86.0 °F 86.8 °F 63.0 °F 46% 29.91 in 10.0 mi South 8.1 mph - N/A   Clear
3:53 PM 87.1 °F 87.5 °F 62.1 °F 43% 29.90 in 10.0 mi Variable 5.8 mph - N/A   Partly Cloudy
4:53 PM 88.0 °F 89.3 °F 64.0 °F 45% 29.88 in 10.0 mi SSW 10.4 mph - N/A   Clear
5:53 PM 88.0 °F 89.3 °F 64.0 °F 45% 29.87 in 10.0 mi South 8.1 mph - N/A   Clear
6:53 PM 87.1 °F 88.3 °F 64.0 °F 46% 29.86 in 10.0 mi SSE 5.8 mph - N/A   Clear
7:53 PM 84.9 °F 87.1 °F 66.0 °F 53% 29.86 in 10.0 mi SE 8.1 mph - N/A   Clear
8:53 PM 80.1 °F 82.1 °F 66.0 °F 62% 29.87 in 10.0 mi SSE 5.8 mph - N/A   Clear
10:53 PM 75.0 °F - 66.9 °F 76% 29.93 in 10.0 mi SSE 4.6 mph - N/A   Clear
11:53 PM 73.9 °F - 66.9 °F 79% 29.91 in 10.0 mi South 4.6 mph - N/A   Clear